Find Starlink 35022

NORAD ID: 65409 Int'l Des: 2025-192 Owner: SPXS Country: US Constellation: starlink operational
LEOCIRCULAR

現在のビュー

3D地球を読み込み中...

About Starlink 35022

Starlink 35022 (NORAD 65409) is a starlink constellation satellite (v2 mini) launched Aug 31, 2025 by SPXS of US. It operates in LEO, CIRCULAR orbit with a mass of 575.00 kg.

Starlink 35022について

説明を読み込み中...

次回通過

Passes for default location (London). Set your location on the main map for personalized predictions.

高度履歴

Loading altitude history...

軌道要素

1 65409U 25192F 26194.85208213 .00007841 00000-0 26402-3 0 9991
2 65409 53.1604 5.3892 0001031 106.3333 253.7782 15.31720384 48714
Epoch: Jul 13, 2026 • Age: 14 hours

現在のステータス

高度 475.9 km
遠地点 / 近地点 N/A
速度 7.63 km/s
衛星直下点 -17.58°S, 100°W
打ち上げ日 Aug 31, 2025
運用期間 0.8 years
タイプ internet

技術仕様

分類 Payload
質量 575.00 kg
乾燥質量 530.00 kg
総質量 575.00 kg
長さ 0.30 m
直径 4.10 m
スパン 29.00 m
形状 Box + pan
製造者 SPXS
バスタイプ Starlink V2MO
フェーズステータス In Orbit
所有者/国 SPXS/US

Most Searched